Location: Jastrz?bniki
(50.3667°N, 20.3833°E)
Time: 12:30:58
(UTC+00:00)

SL-4 R/B - Pass Details

Date: 05 August 2024
Orbit: 409 x 590 km, 51.6° (Epoch: 09 September)

Event Time Altitude Azimuth Distance (km) Brightness Sun altitude
Exits shadow 00:25:11 27° 274° (W) 1,004 3.1 -19.2°
Maximum altitude 00:27:12 74° 354° (N) 519 1.9 -19.1°
Drops below altitude 10° 00:30:54 10° 81° (E) 1,636 4.9 -18.8°
Sets 00:32:59 0° 83° (E) 2,481 5.9 -18.6°
